When you browse on this site, cookies collect data to enhance your experience and personalize the content and advertising you see.
Visit our Privacy Policy to learn more. By continuing to use the site, you agree to this use of cookies and data.
EN

Hourly Weather Stepnoe

Today, 18 September, Friday

Time Temperature Precipitation Wind Pressure Humidity
00:00 +8°C° 0 mm 6 mps 736 mmHg 84%
01:00 +8°C° 0 mm 6 mps 736 mmHg 85%
02:00 +7°C° 0 mm 5 mps 737 mmHg 89%
03:00 +8°C° 0.1 mm 5 mps 736 mmHg 87%
04:00 +8°C° 0.1 mm 6 mps 736 mmHg 85%
05:00 +8°C° 0.1 mm 6 mps 736 mmHg 83%
06:00 +8°C° 0.2 mm 6 mps 736 mmHg 81%
07:00 +8°C° 0.2 mm 6 mps 736 mmHg 80%
08:00 +8°C° 0 mm 6 mps 736 mmHg 79%
09:00 +9°C° 0.3 mm 6 mps 736 mmHg 78%
10:00 +9°C° 0.3 mm 7 mps 736 mmHg 76%
11:00 +9°C° 0.3 mm 7 mps 737 mmHg 75%
12:00 +10°C° 0.2 mm 7 mps 737 mmHg 73%
13:00 +10°C° 0.2 mm 7 mps 737 mmHg 71%
14:00 +11°C° 0.2 mm 7 mps 737 mmHg 69%
15:00 +10°C° 0.2 mm 7 mps 737 mmHg 74%
16:00 +9°C° 0.2 mm 7 mps 737 mmHg 79%
17:00 +9°C° 0.2 mm 7 mps 737 mmHg 83%
18:00 +8°C° 0.2 mm 7 mps 737 mmHg 85%
19:00 +8°C° 0.2 mm 6 mps 738 mmHg 86%
20:00 +8°C° 0.2 mm 6 mps 738 mmHg 88%
21:00 +8°C° 0.1 mm 7 mps 738 mmHg 88%
22:00 +8°C° 0.1 mm 7 mps 738 mmHg 88%
23:00 +8°C° 0.1 mm 7 mps 739 mmHg 89%

Tomorrow, 19 September, Saturday

Time Temperature Precipitation Wind Pressure Humidity
00:00 +6°C° 0 mm 7 mps 739 mmHg 88%
01:00 +6°C° 0 mm 7 mps 739 mmHg 87%
02:00 +6°C° 0 mm 7 mps 740 mmHg 86%
03:00 +5°C° 0 mm 7 mps 740 mmHg 84%
04:00 +5°C° 0 mm 7 mps 740 mmHg 83%
05:00 +5°C° 0 mm 6 mps 740 mmHg 82%
06:00 +5°C° 0 mm 6 mps 741 mmHg 82%
07:00 +5°C° 0 mm 6 mps 741 mmHg 81%
08:00 +6°C° 0 mm 5 mps 741 mmHg 81%
09:00 +8°C° 0 mm 6 mps 741 mmHg 76%
10:00 +10°C° 0 mm 6 mps 741 mmHg 72%
11:00 +12°C° 0 mm 7 mps 741 mmHg 67%
12:00 +14°C° 0 mm 7 mps 741 mmHg 65%
13:00 +15°C° 0 mm 7 mps 741 mmHg 63%
14:00 +16°C° 0 mm 7 mps 741 mmHg 60%
15:00 +15°C° 0 mm 6 mps 741 mmHg 64%
16:00 +14°C° 0 mm 5 mps 741 mmHg 67%
17:00 +13°C° 0 mm 4 mps 741 mmHg 70%
18:00 +12°C° 0 mm 4 mps 741 mmHg 74%
19:00 +11°C° 0 mm 3 mps 741 mmHg 77%
20:00 +10°C° 0 mm 3 mps 741 mmHg 80%
21:00 +10°C° 0 mm 3 mps 742 mmHg 79%
22:00 +10°C° 0 mm 3 mps 742 mmHg 77%
23:00 +10°C° 0 mm 3 mps 742 mmHg 76%

Day after tomorrow, 20 September, Sunday

Time Temperature Precipitation Wind Pressure Humidity
00:00 +9°C° 0 mm 3 mps 742 mmHg 78%
01:00 +8°C° 0 mm 4 mps 742 mmHg 80%
02:00 +7°C° 0 mm 4 mps 742 mmHg 82%
03:00 +6°C° 0 mm 4 mps 742 mmHg 84%
04:00 +6°C° 0 mm 4 mps 743 mmHg 85%
05:00 +7°C° 0 mm 3 mps 743 mmHg 87%
06:00 +7°C° 0 mm 4 mps 743 mmHg 79%
07:00 +8°C° 0 mm 5 mps 744 mmHg 72%
08:00 +9°C° 0 mm 5 mps 744 mmHg 65%
09:00 +10°C° 0 mm 5 mps 744 mmHg 61%
10:00 +12°C° 0 mm 5 mps 744 mmHg 57%
11:00 +12°C° 0 mm 5 mps 745 mmHg 53%
12:00 +13°C° 0 mm 5 mps 745 mmHg 53%
13:00 +13°C° 0 mm 5 mps 745 mmHg 52%
14:00 +14°C° 0 mm 5 mps 745 mmHg 52%
15:00 +13°C° 0 mm 4 mps 745 mmHg 57%
16:00 +12°C° 0 mm 3 mps 745 mmHg 61%
17:00 +11°C° 0 mm 3 mps 745 mmHg 65%
18:00 +10°C° 0 mm 3 mps 745 mmHg 70%
19:00 +9°C° 0 mm 2 mps 746 mmHg 74%
20:00 +8°C° 0 mm 2 mps 746 mmHg 78%
21:00 +8°C° 0 mm 2 mps 746 mmHg 80%
22:00 +7°C° 0 mm 2 mps 746 mmHg 82%
23:00 +7°C° 0 mm 2 mps 746 mmHg 84%

21 September, Monday

Time Temperature Precipitation Wind Pressure Humidity
00:00 +6°C° 0 mm 2 mps 746 mmHg 87%
01:00 +6°C° 0 mm 2 mps 746 mmHg 89%
02:00 +5°C° 0 mm 3 mps 746 mmHg 91%
03:00 +5°C° 0 mm 3 mps 746 mmHg 92%
04:00 +4°C° 0 mm 3 mps 746 mmHg 93%
05:00 +4°C° 0 mm 3 mps 746 mmHg 94%
06:00 +7°C° 0 mm 3 mps 746 mmHg 88%
07:00 +7°C° 0 mm 4 mps 746 mmHg 81%
08:00 +8°C° 0 mm 4 mps 746 mmHg 75%
09:00 +10°C° 0 mm 4 mps 746 mmHg 70%
10:00 +12°C° 0 mm 5 mps 746 mmHg 65%
11:00 +13°C° 0 mm 5 mps 746 mmHg 59%
12:00 +14°C° 0 mm 5 mps 746 mmHg 58%
13:00 +14°C° 0 mm 5 mps 745 mmHg 56%
14:00 +15°C° 0 mm 5 mps 745 mmHg 55%
15:00 +14°C° 0 mm 4 mps 745 mmHg 59%
16:00 +13°C° 0 mm 4 mps 745 mmHg 64%
17:00 +12°C° 0 mm 3 mps 745 mmHg 69%
18:00 +11°C° 0 mm 3 mps 745 mmHg 73%
19:00 +11°C° 0 mm 3 mps 745 mmHg 77%
20:00 +10°C° 0 mm 3 mps 745 mmHg 81%
21:00 +9°C° 0 mm 2 mps 745 mmHg 83%
22:00 +9°C° 0 mm 2 mps 745 mmHg 85%
23:00 +8°C° 0 mm 2 mps 745 mmHg 87%

22 September, Tuesday

Time Temperature Precipitation Wind Pressure Humidity
00:00 +8°C° 0 mm 2 mps 745 mmHg 88%
01:00 +8°C° 0 mm 2 mps 745 mmHg 89%
02:00 +8°C° 0 mm 2 mps 745 mmHg 90%
03:00 +8°C° 0 mm 2 mps 745 mmHg 90%
04:00 +8°C° 0 mm 2 mps 746 mmHg 91%
05:00 +8°C° 0 mm 2 mps 746 mmHg 92%
06:00 +9°C° 0 mm 2 mps 746 mmHg 87%
07:00 +10°C° 0 mm 2 mps 746 mmHg 81%
08:00 +13°C° 0 mm 2 mps 746 mmHg 76%
09:00 +13°C° 0 mm 3 mps 747 mmHg 71%
10:00 +16°C° 0 mm 3 mps 747 mmHg 66%
11:00 +18°C° 0 mm 3 mps 747 mmHg 61%
12:00 +18°C° 0 mm 3 mps 747 mmHg 58%
13:00 +19°C° 0 mm 3 mps 747 mmHg 56%
14:00 +19°C° 0 mm 3 mps 746 mmHg 54%
15:00 +18°C° 0 mm 3 mps 746 mmHg 58%
16:00 +17°C° 0 mm 3 mps 746 mmHg 62%
17:00 +16°C° 0 mm 2 mps 745 mmHg 67%
18:00 +15°C° 0 mm 2 mps 745 mmHg 68%
19:00 +14°C° 0 mm 2 mps 745 mmHg 70%
20:00 +12°C° 0 mm 3 mps 746 mmHg 71%
21:00 +12°C° 0 mm 3 mps 746 mmHg 70%
22:00 +12°C° 0 mm 3 mps 746 mmHg 70%
23:00 +11°C° 0 mm 3 mps 746 mmHg 69%

23 September, Wednesday

Time Temperature Precipitation Wind Pressure Humidity
00:00 +11°C° 0 mm 3 mps 746 mmHg 68%
01:00 +11°C° 0 mm 3 mps 745 mmHg 66%
02:00 +10°C° 0 mm 3 mps 745 mmHg 65%
03:00 +10°C° 0 mm 3 mps 745 mmHg 64%
04:00 +10°C° 0 mm 3 mps 746 mmHg 63%
05:00 +10°C° 0 mm 3 mps 746 mmHg 62%
06:00 +11°C° 0 mm 3 mps 746 mmHg 59%
07:00 +12°C° 0 mm 4 mps 746 mmHg 56%
08:00 +14°C° 0 mm 4 mps 746 mmHg 53%
09:00 +15°C° 0 mm 4 mps 746 mmHg 49%
10:00 +18°C° 0 mm 4 mps 745 mmHg 46%
11:00 +20°C° 0 mm 4 mps 745 mmHg 42%
12:00 +21°C° 0 mm 4 mps 745 mmHg 40%
13:00 +21°C° 0 mm 4 mps 745 mmHg 39%
14:00 +22°C° 0 mm 4 mps 745 mmHg 37%
15:00 +21°C° 0 mm 4 mps 744 mmHg 42%
16:00 +19°C° 0 mm 3 mps 744 mmHg 47%
17:00 +18°C° 0 mm 3 mps 744 mmHg 52%
18:00 +17°C° 0 mm 3 mps 744 mmHg 52%
19:00 +16°C° 0 mm 3 mps 744 mmHg 52%
20:00 +14°C° 0 mm 3 mps 744 mmHg 52%
21:00 +13°C° 0 mm 3 mps 744 mmHg 52%
22:00 +13°C° 0 mm 3 mps 744 mmHg 51%
23:00 +12°C° 0 mm 3 mps 744 mmHg 51%
Show more